Location: Ebersheim
(48.3033°N, 7.4991°E)
Time: 08:20:52
(UTC+00:00)

CZ-2C R/B - Pass Details

Date: 27 February 2020
Orbit: 703 x 909 km, 98.1° (Epoch: 31 March)

Event Time Altitude Azimuth Distance (km) Brightness Sun altitude
Exits shadow 19:18:40 - 170° (S) 2,855 5.7 -22.1°
Reaches altitude 10° 19:19:22 10° 171° (S) 2,580 5.5 -22.2°
Maximum altitude 19:25:10 76° 257° (WSW) 922 3.4 -23.1°
Drops below altitude 10° 19:30:49 10° 343° (NNW) 2,515 6.0 -24.0°
Sets 19:33:10 0° 346° (NNW) 3,429 6.8 -24.4°
